Check out our new BloomSky Weather System.

Active alerts


No alerts


Thunder radar  blitzortung!


Rain radar more information rain snow radar


Visit our other weather sites:

Template documentation
and downloads

And another site



Weather Underground History page Text

Daily Summary for January 31, 2017 Units:  English    Metric   Both
« Previous Day
Next Day »
Daily Weekly Monthly Yearly Custom
  High: Low: Average:
Temperature: 76.1 °F 47.7 °F 63.1 °F
Dew Point: 56.1 °F 46.0 °F 50.4 °F
Humidity: 97 % 38 % 67 %
Wind Speed: 16.0 mph 0.0 mph 2.8 mph
Wind Gust: 18.0 mph - -
Wind:- - South
Pressure: 30.13 in 29.99 in -
Precipitation: 0.00 in    
Historical Graphs
 
 
Tabular Data for January 31, 2017
Time Temperature Dew Point Pressure Wind Wind Speed Wind Gust Humidity Rainfall Rate (Hourly)
00:04 57.7 °F 46.0 °F 30.11 in SSE 2.0 mph 6.0 mph 65 % 0.00 in
00:09 57.6 °F 46.2 °F 30.11 in SSW 3.0 mph 6.0 mph 66 % 0.00 in
00:14 57.6 °F 46.8 °F 30.11 in SW 6.0 mph 6.0 mph 67 % 0.00 in
00:19 57.4 °F 46.6 °F 30.11 in South 2.0 mph 6.0 mph 67 % 0.00 in
00:24 57.4 °F 46.9 °F 30.11 in SSW 2.0 mph 6.0 mph 68 % 0.00 in
00:29 57.2 °F 47.1 °F 30.11 in SSW 2.0 mph 6.0 mph 69 % 0.00 in
00:34 57.2 °F 47.1 °F 30.11 in SSW 3.0 mph 6.0 mph 69 % 0.00 in
00:39 57.2 °F 47.5 °F 30.11 in Calm   6.0 mph 70 % 0.00 in
00:44 57.0 °F 47.3 °F 30.11 in Calm   6.0 mph 70 % 0.00 in
00:49 56.7 °F 46.9 °F 30.12 in South 1.0 mph 5.0 mph 70 % 0.00 in
00:54 56.3 °F 46.9 °F 30.11 in Calm   5.0 mph 71 % 0.00 in
00:59 55.9 °F 47.1 °F 30.12 in Calm   2.0 mph 72 % 0.00 in
01:04 55.8 °F 47.3 °F 30.12 in Calm   2.0 mph 73 % 0.00 in
01:09 55.8 °F 47.7 °F 30.12 in Calm   4.0 mph 74 % 0.00 in
01:15 55.6 °F 47.8 °F 30.12 in Calm   4.0 mph 75 % 0.00 in
01:20 55.4 °F 47.7 °F 30.12 in Calm   4.0 mph 75 % 0.00 in
01:25 55.0 °F 47.3 °F 30.12 in Calm   2.0 mph 75 % 0.00 in
01:30 54.5 °F 46.8 °F 30.12 in Calm   1.0 mph 75 % 0.00 in
01:35 54.1 °F 47.5 °F 30.12 in Calm     78 % 0.00 in
01:40 54.0 °F 47.7 °F 30.12 in Calm     79 % 0.00 in
01:45 53.8 °F 47.5 °F 30.12 in Calm   2.0 mph 79 % 0.00 in
01:50 53.4 °F 47.1 °F 30.12 in Calm   2.0 mph 79 % 0.00 in
01:55 52.9 °F 46.6 °F 30.12 in Calm   1.0 mph 79 % 0.00 in
02:00 52.5 °F 46.9 °F 30.12 in Calm   1.0 mph 81 % 0.00 in
02:05 52.5 °F 47.8 °F 30.12 in Calm   2.0 mph 84 % 0.00 in
02:10 52.5 °F 47.8 °F 30.12 in Calm   2.0 mph 84 % 0.00 in
02:15 52.5 °F 47.8 °F 30.12 in Calm   2.0 mph 84 % 0.00 in
02:20 52.5 °F 48.2 °F 30.12 in Calm   1.0 mph 85 % 0.00 in
02:25 52.3 °F 48.0 °F 30.11 in Calm     85 % 0.00 in
02:35 53.1 °F 49.3 °F 30.11 in SSW 1.0 mph 3.0 mph 87 % 0.00 in
02:40 53.4 °F 49.6 °F 30.11 in SSW 2.0 mph 3.0 mph 87 % 0.00 in
02:45 54.0 °F 50.2 °F 30.10 in SSW 2.0 mph 4.0 mph 87 % 0.00 in
02:50 54.1 °F 50.4 °F 30.11 in SW 2.0 mph 4.0 mph 87 % 0.00 in
02:55 54.7 °F 50.5 °F 30.10 in South 3.0 mph 4.0 mph 86 % 0.00 in
03:00 54.9 °F 50.7 °F 30.11 in SSE 3.0 mph 5.0 mph 86 % 0.00 in
03:05 55.2 °F 51.1 °F 30.10 in SSE 3.0 mph 5.0 mph 86 % 0.00 in
03:10 55.2 °F 51.1 °F 30.10 in South 3.0 mph 5.0 mph 86 % 0.00 in
03:16 55.2 °F 51.1 °F 30.10 in SW 3.0 mph 5.0 mph 86 % 0.00 in
03:21 55.2 °F 51.1 °F 30.10 in SSW 2.0 mph 5.0 mph 86 % 0.00 in
03:26 55.2 °F 51.1 °F 30.10 in SSW 1.0 mph 5.0 mph 86 % 0.00 in
03:31 55.0 °F 50.9 °F 30.10 in South 1.0 mph 5.0 mph 86 % 0.00 in
03:36 54.9 °F 50.7 °F 30.10 in SSW 1.0 mph 5.0 mph 86 % 0.00 in
03:41 54.7 °F 50.9 °F 30.10 in SSW 1.0 mph 5.0 mph 87 % 0.00 in
03:46 54.5 °F 50.7 °F 30.10 in SSW 3.0 mph 3.0 mph 87 % 0.00 in
03:51 54.5 °F 50.7 °F 30.10 in SSW 1.0 mph 5.0 mph 87 % 0.00 in
03:56 54.3 °F 50.9 °F 30.10 in Calm   5.0 mph 88 % 0.00 in
04:02 54.3 °F 50.9 °F 30.10 in SSW 2.0 mph 5.0 mph 88 % 0.00 in
04:07 54.1 °F 50.7 °F 30.10 in Calm   4.0 mph 88 % 0.00 in
04:12 54.1 °F 50.7 °F 30.10 in Calm   3.0 mph 88 % 0.00 in
04:17 54.0 °F 50.7 °F 30.10 in Calm   3.0 mph 89 % 0.00 in
04:22 53.8 °F 50.5 °F 30.10 in Calm   3.0 mph 89 % 0.00 in
04:27 53.6 °F 50.4 °F 30.11 in Calm   3.0 mph 89 % 0.00 in
04:32 53.2 °F 50.0 °F 30.11 in Calm   2.0 mph 89 % 0.00 in
04:37 53.1 °F 49.8 °F 30.10 in Calm   2.0 mph 89 % 0.00 in
04:42 52.9 °F 50.0 °F 30.10 in SSE 1.0 mph 1.0 mph 90 % 0.00 in
04:47 52.9 °F 50.4 °F 30.10 in South 1.0 mph 2.0 mph 91 % 0.00 in
04:52 52.9 °F 50.4 °F 30.10 in Calm   2.0 mph 91 % 0.00 in
04:57 53.1 °F 50.7 °F 30.10 in Calm   3.0 mph 92 % 0.00 in
05:02 52.9 °F 50.5 °F 30.10 in Calm   3.0 mph 92 % 0.00 in
05:07 52.9 °F 50.5 °F 30.11 in Calm   3.0 mph 92 % 0.00 in
05:12 52.5 °F 50.2 °F 30.11 in Calm   2.0 mph 92 % 0.00 in
05:17 52.3 °F 50.0 °F 30.11 in Calm   1.0 mph 92 % 0.00 in
05:22 52.2 °F 49.8 °F 30.11 in Calm   1.0 mph 92 % 0.00 in
05:27 51.8 °F 49.6 °F 30.11 in Calm   1.0 mph 92 % 0.00 in
05:32 51.6 °F 49.5 °F 30.11 in Calm   1.0 mph 92 % 0.00 in
05:37 51.4 °F 49.5 °F 30.11 in Calm   1.0 mph 93 % 0.00 in
05:42 51.1 °F 48.9 °F 30.11 in Calm   1.0 mph 92 % 0.00 in
05:47 50.7 °F 48.7 °F 30.11 in Calm     93 % 0.00 in
05:52 50.4 °F 48.4 °F 30.11 in Calm   1.0 mph 93 % 0.00 in
05:57 50.2 °F 48.2 °F 30.11 in Calm   1.0 mph 93 % 0.00 in
06:02 49.8 °F 47.8 °F 30.11 in Calm   1.0 mph 93 % 0.00 in
06:07 49.5 °F 47.5 °F 30.11 in Calm     93 % 0.00 in
06:12 49.3 °F 47.7 °F 30.11 in Calm     94 % 0.00 in
06:17 49.1 °F 47.5 °F 30.11 in Calm     94 % 0.00 in
06:22 49.5 °F 47.8 °F 30.11 in SSE 1.0 mph 1.0 mph 94 % 0.00 in
06:27 49.8 °F 48.4 °F 30.10 in Calm   1.0 mph 95 % 0.00 in
06:32 50.2 °F 48.7 °F 30.11 in Calm   1.0 mph 95 % 0.00 in
06:35 50.2 °F 48.7 °F 30.11 in SSE 1.0 mph 1.0 mph 95 % 0.00 in
06:40 50.0 °F 48.6 °F 30.11 in Calm   2.0 mph 95 % 0.00 in
06:45 49.6 °F 48.0 °F 30.11 in Calm   2.0 mph 94 % 0.00 in
06:50 49.3 °F 47.7 °F 30.11 in Calm   2.0 mph 94 % 0.00 in
06:55 48.9 °F 47.5 °F 30.11 in Calm     95 % 0.00 in
07:00 48.7 °F 47.1 °F 30.11 in Calm     94 % 0.00 in
07:05 48.2 °F 46.6 °F 30.11 in Calm     94 % 0.00 in
07:10 48.0 °F 46.6 °F 30.12 in Calm     95 % 0.00 in
07:15 48.0 °F 46.6 °F 30.12 in Calm     95 % 0.00 in
07:20 48.0 °F 46.6 °F 30.12 in Calm     95 % 0.00 in
07:25 48.0 °F 46.6 °F 30.12 in Calm     95 % 0.00 in
07:30 47.7 °F 46.2 °F 30.12 in Calm     95 % 0.00 in
07:36 47.7 °F 46.2 °F 30.12 in Calm     95 % 0.00 in
07:40 48.0 °F 46.6 °F 30.12 in Calm     95 % 0.00 in
07:46 48.4 °F 47.3 °F 30.12 in Calm     96 % 0.00 in
07:51 48.6 °F 47.5 °F 30.12 in Calm     96 % 0.00 in
07:56 49.6 °F 48.7 °F 30.12 in Calm     97 % 0.00 in
08:01 50.5 °F 49.6 °F 30.12 in Calm     97 % 0.00 in
08:06 52.2 °F 51.3 °F 30.12 in ESE 1.0 mph   97 % 0.00 in
08:11 52.9 °F 52.0 °F 30.12 in Calm   2.0 mph 97 % 0.00 in
08:16 53.4 °F 52.3 °F 30.12 in Calm   2.0 mph 96 % 0.00 in
08:21 54.0 °F 52.5 °F 30.12 in South 2.0 mph 2.0 mph 95 % 0.00 in
08:26 54.3 °F 52.3 °F 30.12 in South 2.0 mph 5.0 mph 93 % 0.00 in
08:31 54.9 °F 52.5 °F 30.12 in SW 2.0 mph 5.0 mph 92 % 0.00 in
08:36 55.6 °F 52.7 °F 30.12 in SSW 3.0 mph 5.0 mph 90 % 0.00 in
08:41 56.1 °F 52.3 °F 30.12 in SSW 3.0 mph 5.0 mph 87 % 0.00 in
08:46 56.7 °F 51.8 °F 30.12 in SW 5.0 mph 5.0 mph 84 % 0.00 in
08:51 57.4 °F 51.6 °F 30.12 in SSW 6.0 mph 6.0 mph 81 % 0.00 in
08:56 57.7 °F 50.5 °F 30.12 in SW 4.0 mph 8.0 mph 77 % 0.00 in
09:01 58.5 °F 50.2 °F 30.13 in South 6.0 mph 8.0 mph 74 % 0.00 in
09:06 59.2 °F 49.8 °F 30.12 in SSW 6.0 mph 9.0 mph 71 % 0.00 in
09:11 59.7 °F 49.5 °F 30.13 in SW 3.0 mph 9.0 mph 69 % 0.00 in
09:16 60.3 °F 48.9 °F 30.12 in SE 4.0 mph 9.0 mph 66 % 0.00 in
09:21 61.0 °F 49.1 °F 30.13 in WSW 6.0 mph 11.0 mph 65 % 0.00 in
09:26 61.3 °F 48.6 °F 30.13 in SSW 3.0 mph 11.0 mph 63 % 0.00 in
09:31 61.5 °F 48.0 °F 30.13 in SW 6.0 mph 11.0 mph 61 % 0.00 in
09:36 62.2 °F 49.1 °F 30.13 in SW 5.0 mph 11.0 mph 62 % 0.00 in
09:41 62.8 °F 48.2 °F 30.13 in SE 2.0 mph 11.0 mph 59 % 0.00 in
09:46 63.1 °F 48.2 °F 30.13 in SSW 2.0 mph 12.0 mph 58 % 0.00 in
09:51 63.9 °F 47.8 °F 30.13 in South 5.0 mph 12.0 mph 56 % 0.00 in
09:56 64.4 °F 47.8 °F 30.13 in SW 4.0 mph 12.0 mph 55 % 0.00 in
10:01 64.9 °F 47.5 °F 30.13 in SW 16.0 mph 16.0 mph 53 % 0.00 in
10:06 65.5 °F 47.8 °F 30.13 in South 6.0 mph 16.0 mph 53 % 0.00 in
10:07 65.5 °F 47.5 °F 30.13 in SSW 6.0 mph 16.0 mph 52 % 0.00 in
10:12 65.8 °F 47.7 °F 30.13 in SSW 8.0 mph 16.0 mph 52 % 0.00 in
10:17 66.4 °F 47.7 °F 30.13 in SSE 3.0 mph 16.0 mph 51 % 0.00 in
10:22 66.9 °F 47.7 °F 30.13 in SSW 2.0 mph 14.0 mph 50 % 0.00 in
10:27 67.6 °F 47.3 °F 30.13 in SW 4.0 mph 11.0 mph 48 % 0.00 in
10:32 67.8 °F 46.9 °F 30.13 in WSW 9.0 mph 10.0 mph 47 % 0.00 in
10:37 67.8 °F 46.9 °F 30.13 in SSW 5.0 mph 14.0 mph 47 % 0.00 in
10:42 68.0 °F 46.9 °F 30.13 in SW 2.0 mph 15.0 mph 47 % 0.00 in
10:47 68.4 °F 46.8 °F 30.13 in SW 10.0 mph 15.0 mph 46 % 0.00 in
10:52 68.4 °F 47.3 °F 30.13 in SW 6.0 mph 15.0 mph 47 % 0.00 in
10:57 69.1 °F 47.5 °F 30.13 in SW 9.0 mph 14.0 mph 46 % 0.00 in
11:02 69.3 °F 47.7 °F 30.13 in SSW 4.0 mph 14.0 mph 46 % 0.00 in
11:08 69.6 °F 47.3 °F 30.13 in WSW 3.0 mph 11.0 mph 45 % 0.00 in
11:13 70.0 °F 47.7 °F 30.13 in SSW 6.0 mph 11.0 mph 45 % 0.00 in
11:18 70.0 °F 47.1 °F 30.12 in SSE 7.0 mph 11.0 mph 44 % 0.00 in
11:23 70.5 °F 48.2 °F 30.12 in West 5.0 mph 10.0 mph 45 % 0.00 in
11:28 70.9 °F 47.3 °F 30.12 in SSW 5.0 mph 10.0 mph 43 % 0.00 in
11:33 71.4 °F 47.8 °F 30.12 in SW 2.0 mph 10.0 mph 43 % 0.00 in
11:38 71.8 °F 48.0 °F 30.12 in SW 7.0 mph 8.0 mph 43 % 0.00 in
11:43 72.3 °F 47.3 °F 30.12 in SW 4.0 mph 9.0 mph 41 % 0.00 in
11:48 72.5 °F 47.5 °F 30.11 in SSW 2.0 mph 11.0 mph 41 % 0.00 in
11:53 72.9 °F 47.1 °F 30.11 in SW 1.0 mph 11.0 mph 40 % 0.00 in
11:58 73.2 °F 48.7 °F 30.11 in Calm   11.0 mph 42 % 0.00 in
12:03 73.6 °F 47.8 °F 30.11 in West 4.0 mph 7.0 mph 40 % 0.00 in
12:08 73.8 °F 48.6 °F 30.10 in WSW 2.0 mph 7.0 mph 41 % 0.00 in
12:13 74.3 °F 48.4 °F 30.10 in NNW 2.0 mph 7.0 mph 40 % 0.00 in
12:18 74.7 °F 48.0 °F 30.10 in South 9.0 mph 9.0 mph 39 % 0.00 in
12:23 73.9 °F 48.0 °F 30.09 in SSE 7.0 mph 12.0 mph 40 % 0.00 in
12:28 73.8 °F 48.0 °F 30.09 in NNW 1.0 mph 12.0 mph 40 % 0.00 in
12:33 73.9 °F 48.0 °F 30.09 in South 2.0 mph 12.0 mph 40 % 0.00 in
12:38 74.8 °F 48.9 °F 30.08 in WSW 6.0 mph 9.0 mph 40 % 0.00 in
12:43 74.7 °F 48.7 °F 30.08 in SSW 3.0 mph 9.0 mph 40 % 0.00 in
12:48 74.8 °F 48.2 °F 30.08 in SSW 2.0 mph 9.0 mph 39 % 0.00 in
12:53 74.5 °F 47.1 °F 30.08 in SSW 7.0 mph 13.0 mph 38 % 0.00 in
12:59 73.9 °F 48.0 °F 30.07 in SW 3.0 mph 13.0 mph 40 % 0.00 in
13:04 74.5 °F 49.3 °F 30.07 in SSE 6.0 mph 13.0 mph 41 % 0.00 in
13:09 74.3 °F 48.4 °F 30.06 in SSW 5.0 mph 12.0 mph 40 % 0.00 in
13:14 74.1 °F 49.6 °F 30.06 in South 5.0 mph 13.0 mph 42 % 0.00 in
13:19 73.9 °F 48.7 °F 30.06 in South 4.0 mph 13.0 mph 41 % 0.00 in
13:24 74.5 °F 50.5 °F 30.06 in SSW 4.0 mph 13.0 mph 43 % 0.00 in
13:29 74.7 °F 50.0 °F 30.06 in SW 8.0 mph 10.0 mph 42 % 0.00 in
13:34 74.1 °F 50.2 °F 30.05 in SSW 1.0 mph 10.0 mph 43 % 0.00 in
13:39 74.5 °F 50.5 °F 30.05 in SSW 7.0 mph 10.0 mph 43 % 0.00 in
13:44 74.7 °F 50.0 °F 30.04 in SSW 3.0 mph 14.0 mph 42 % 0.00 in
13:49 74.8 °F 50.2 °F 30.04 in SSW 5.0 mph 14.0 mph 42 % 0.00 in
13:54 74.8 °F 50.2 °F 30.04 in SW 2.0 mph 14.0 mph 42 % 0.00 in
13:59 75.0 °F 49.1 °F 30.04 in SSW 4.0 mph 10.0 mph 40 % 0.00 in
14:04 75.0 °F 49.1 °F 30.04 in SSE 6.0 mph 12.0 mph 40 % 0.00 in
14:09 74.8 °F 49.6 °F 30.03 in South 3.0 mph 12.0 mph 41 % 0.00 in
14:14 75.2 °F 49.3 °F 30.03 in SSE 6.0 mph 12.0 mph 40 % 0.00 in
14:19 75.0 °F 49.1 °F 30.03 in SE 7.0 mph 12.0 mph 40 % 0.00 in
14:24 74.8 °F 48.2 °F 30.03 in SSE 3.0 mph 13.0 mph 39 % 0.00 in
14:29 74.8 °F 49.6 °F 30.02 in SSW 6.0 mph 14.0 mph 41 % 0.00 in
14:34 75.0 °F 49.6 °F 30.02 in South 9.0 mph 14.0 mph 41 % 0.00 in
14:39 75.0 °F 49.6 °F 30.02 in SE 8.0 mph 14.0 mph 41 % 0.00 in
14:45 75.0 °F 49.6 °F 30.02 in ESE 6.0 mph 14.0 mph 41 % 0.00 in
14:50 75.0 °F 50.4 °F 30.01 in SE 8.0 mph 14.0 mph 42 % 0.00 in
14:55 75.0 °F 50.4 °F 30.01 in SSE 3.0 mph 18.0 mph 42 % 0.00 in
15:00 75.0 °F 50.4 °F 30.01 in South 9.0 mph 18.0 mph 42 % 0.00 in
15:05 75.4 °F 52.0 °F 30.01 in SW 6.0 mph 18.0 mph 44 % 0.00 in
15:10 75.6 °F 52.2 °F 30.01 in SSE 3.0 mph 12.0 mph 44 % 0.00 in
15:15 75.6 °F 51.4 °F 30.00 in SSE 4.0 mph 12.0 mph 43 % 0.00 in
15:20 75.6 °F 51.4 °F 30.00 in SSW 6.0 mph 12.0 mph 43 % 0.00 in
15:25 75.6 °F 51.4 °F 30.00 in SSW 4.0 mph 13.0 mph 43 % 0.00 in
15:30 75.9 °F 51.8 °F 30.00 in SSE 4.0 mph 13.0 mph 43 % 0.00 in
15:35 76.1 °F 50.0 °F 30.00 in SE 7.0 mph 13.0 mph 40 % 0.00 in
15:40 75.9 °F 49.8 °F 30.00 in South 4.0 mph 9.0 mph 40 % 0.00 in
15:45 75.7 °F 50.4 °F 30.00 in South 4.0 mph 9.0 mph 41 % 0.00 in
15:50 76.1 °F 50.7 °F 30.00 in SSW 6.0 mph 9.0 mph 41 % 0.00 in
15:55 75.9 °F 51.3 °F 30.00 in SW 5.0 mph 13.0 mph 42 % 0.00 in
16:00 75.6 °F 50.9 °F 30.00 in South 5.0 mph 13.0 mph 42 % 0.00 in
16:05 75.6 °F 52.2 °F 30.00 in South 7.0 mph 13.0 mph 44 % 0.00 in
16:10 75.4 °F 51.3 °F 30.01 in South 2.0 mph 10.0 mph 43 % 0.00 in
16:15 75.6 °F 50.2 °F 30.01 in SSW 7.0 mph 12.0 mph 41 % 0.00 in
16:20 75.6 °F 50.2 °F 30.01 in SW 3.0 mph 12.0 mph 41 % 0.00 in
16:25 75.7 °F 51.1 °F 30.01 in SSW 8.0 mph 13.0 mph 42 % 0.00 in
16:30 75.4 °F 51.3 °F 30.01 in SSE 6.0 mph 13.0 mph 43 % 0.00 in
16:35 75.0 °F 51.6 °F 30.01 in SSE 5.0 mph 13.0 mph 44 % 0.00 in
16:40 75.0 °F 52.2 °F 30.01 in SSW 5.0 mph 11.0 mph 45 % 0.00 in
16:45 74.8 °F 51.4 °F 30.01 in WSW 5.0 mph 11.0 mph 44 % 0.00 in
16:50 74.8 °F 51.4 °F 30.00 in South 4.0 mph 9.0 mph 44 % 0.00 in
16:56 74.8 °F 51.4 °F 30.00 in SSW 4.0 mph 9.0 mph 44 % 0.00 in
17:01 74.5 °F 51.1 °F 30.00 in SSW 3.0 mph 11.0 mph 44 % 0.00 in
17:06 74.3 °F 50.9 °F 30.00 in SSW 6.0 mph 11.0 mph 44 % 0.00 in
17:11 74.1 °F 51.4 °F 30.00 in South 3.0 mph 11.0 mph 45 % 0.00 in
17:16 74.1 °F 52.5 °F 30.00 in South 3.0 mph 11.0 mph 47 % 0.00 in
17:21 73.9 °F 51.8 °F 30.00 in SSW 5.0 mph 11.0 mph 46 % 0.00 in
17:26 73.6 °F 50.9 °F 30.00 in SSW 3.0 mph 11.0 mph 45 % 0.00 in
17:31 73.0 °F 50.4 °F 30.00 in SSW 4.0 mph 11.0 mph 45 % 0.00 in
17:33 73.0 °F 50.4 °F 30.00 in SSW 4.0 mph 11.0 mph 45 % 0.00 in
17:38 72.7 °F 50.7 °F 30.00 in SE 2.0 mph 9.0 mph 46 % 0.00 in
17:43 72.3 °F 50.4 °F 30.00 in South 1.0 mph 9.0 mph 46 % 0.00 in
17:48 72.0 °F 50.7 °F 30.00 in SSW 3.0 mph 7.0 mph 47 % 0.00 in
17:53 71.4 °F 50.7 °F 30.00 in SSE 3.0 mph 6.0 mph 48 % 0.00 in
17:58 71.1 °F 50.9 °F 30.00 in SSW 3.0 mph 8.0 mph 49 % 0.00 in
18:03 70.9 °F 50.7 °F 30.00 in SSE 3.0 mph 8.0 mph 49 % 0.00 in
18:08 70.7 °F 50.5 °F 30.00 in SSE 2.0 mph 9.0 mph 49 % 0.00 in
18:13 70.3 °F 50.9 °F 30.00 in South 2.0 mph 9.0 mph 50 % 0.00 in
18:18 70.0 °F 50.5 °F 30.00 in South 7.0 mph 9.0 mph 50 % 0.00 in
18:23 69.6 °F 50.2 °F 29.99 in SSE 2.0 mph 7.0 mph 50 % 0.00 in
18:28 69.4 °F 50.5 °F 30.00 in South 4.0 mph 7.0 mph 51 % 0.00 in
18:33 69.3 °F 50.4 °F 29.99 in South 4.0 mph 7.0 mph 51 % 0.00 in
18:38 69.3 °F 50.4 °F 29.99 in SSW 2.0 mph 6.0 mph 51 % 0.00 in
18:43 68.9 °F 50.5 °F 30.00 in SSW 2.0 mph 7.0 mph 52 % 0.00 in
18:48 68.7 °F 50.9 °F 30.00 in SSE 2.0 mph 7.0 mph 53 % 0.00 in
18:53 68.4 °F 50.5 °F 30.00 in South 3.0 mph 7.0 mph 53 % 0.00 in
18:58 68.2 °F 50.9 °F 30.00 in SE 1.0 mph 7.0 mph 54 % 0.00 in
19:03 68.0 °F 51.3 °F 30.00 in SSE 3.0 mph 7.0 mph 55 % 0.00 in
19:09 67.8 °F 51.1 °F 30.00 in SSW 3.0 mph 5.0 mph 55 % 0.00 in
19:14 67.6 °F 51.4 °F 30.00 in SSW 3.0 mph 6.0 mph 56 % 0.00 in
19:19 67.5 °F 51.6 °F 30.00 in SSW 3.0 mph 8.0 mph 57 % 0.00 in
19:24 67.5 °F 52.7 °F 30.00 in ESE 3.0 mph 9.0 mph 59 % 0.00 in
19:29 67.3 °F 52.9 °F 30.00 in SSE 9.0 mph 9.0 mph 60 % 0.00 in
19:34 67.5 °F 54.0 °F 30.00 in SSW 5.0 mph 9.0 mph 62 % 0.00 in
19:39 67.3 °F 54.3 °F 30.00 in SSW 2.0 mph 9.0 mph 63 % 0.00 in
19:44 67.3 °F 54.7 °F 30.00 in SE 6.0 mph 9.0 mph 64 % 0.00 in
19:49 67.1 °F 54.9 °F 30.00 in SE 5.0 mph 10.0 mph 65 % 0.00 in
19:54 66.9 °F 54.9 °F 30.00 in South 4.0 mph 11.0 mph 65 % 0.00 in
19:59 66.7 °F 55.0 °F 30.00 in SE 3.0 mph 11.0 mph 66 % 0.00 in
20:04 66.6 °F 54.9 °F 30.00 in SSW 4.0 mph 11.0 mph 66 % 0.00 in
20:09 66.4 °F 55.0 °F 30.00 in SSE 7.0 mph 9.0 mph 67 % 0.00 in
20:14 66.4 °F 55.0 °F 30.00 in SE 5.0 mph 11.0 mph 67 % 0.00 in
20:19 66.2 °F 54.9 °F 30.00 in SSE 6.0 mph 11.0 mph 67 % 0.00 in
20:24 66.0 °F 55.2 °F 30.00 in SSE 4.0 mph 11.0 mph 68 % 0.00 in
20:29 65.8 °F 55.0 °F 30.00 in SSW 6.0 mph 10.0 mph 68 % 0.00 in
20:34 65.8 °F 55.0 °F 30.00 in SE 9.0 mph 10.0 mph 68 % 0.00 in
20:39 65.7 °F 55.2 °F 30.00 in South 7.0 mph 9.0 mph 69 % 0.00 in
20:44 65.5 °F 55.0 °F 30.00 in South 1.0 mph 9.0 mph 69 % 0.00 in
20:49 65.5 °F 55.0 °F 30.00 in SE 4.0 mph 9.0 mph 69 % 0.00 in
20:54 65.1 °F 55.0 °F 30.00 in SSE 4.0 mph 7.0 mph 70 % 0.00 in
20:59 65.1 °F 55.4 °F 30.00 in SSE 4.0 mph 7.0 mph 71 % 0.00 in
21:04 64.9 °F 55.4 °F 30.00 in South 5.0 mph 7.0 mph 71 % 0.00 in
21:09 64.8 °F 55.6 °F 30.00 in SSE 2.0 mph 7.0 mph 72 % 0.00 in
21:14 64.6 °F 55.4 °F 30.00 in South 2.0 mph 6.0 mph 72 % 0.00 in
21:20 64.6 °F 55.8 °F 30.00 in SE 3.0 mph 7.0 mph 73 % 0.00 in
21:25 64.2 °F 55.4 °F 30.00 in SE 2.0 mph 7.0 mph 73 % 0.00 in
21:30 64.0 °F 55.6 °F 30.01 in SSE 1.0 mph 7.0 mph 74 % 0.00 in
21:35 63.9 °F 55.8 °F 30.01 in SE 1.0 mph 4.0 mph 75 % 0.00 in
21:40 63.7 °F 55.6 °F 30.01 in Calm   3.0 mph 75 % 0.00 in
21:45 63.1 °F 55.0 °F 30.01 in Calm   3.0 mph 75 % 0.00 in
21:50 63.0 °F 55.2 °F 30.01 in ESE 2.0 mph 3.0 mph 76 % 0.00 in
21:55 62.8 °F 55.4 °F 30.01 in SE 1.0 mph 3.0 mph 77 % 0.00 in
22:00 62.4 °F 55.4 °F 30.01 in SE 1.0 mph 4.0 mph 78 % 0.00 in
22:05 62.2 °F 55.2 °F 30.01 in SSE 2.0 mph 4.0 mph 78 % 0.00 in
22:10 62.1 °F 55.4 °F 30.01 in South 1.0 mph 4.0 mph 79 % 0.00 in
22:15 62.1 °F 55.8 °F 30.01 in SE 1.0 mph 3.0 mph 80 % 0.00 in
22:20 61.9 °F 55.6 °F 30.01 in SE 1.0 mph 3.0 mph 80 % 0.00 in
22:25 61.7 °F 55.4 °F 30.01 in SE 2.0 mph 3.0 mph 80 % 0.00 in
22:35 61.5 °F 55.9 °F 30.01 in SSE 2.0 mph 4.0 mph 82 % 0.00 in
22:40 61.3 °F 55.8 °F 30.01 in South 3.0 mph 4.0 mph 82 % 0.00 in
22:45 61.3 °F 56.1 °F 30.01 in SE 1.0 mph 4.0 mph 83 % 0.00 in
22:50 61.2 °F 55.9 °F 30.01 in Calm   3.0 mph 83 % 0.00 in
22:55 61.0 °F 55.8 °F 30.01 in SE 1.0 mph 3.0 mph 83 % 0.00 in
23:00 60.8 °F 55.9 °F 30.01 in South 1.0 mph 2.0 mph 84 % 0.00 in
23:05 60.4 °F 55.6 °F 30.01 in Calm   2.0 mph 84 % 0.00 in
23:10 60.4 °F 55.9 °F 30.01 in SE 1.0 mph 2.0 mph 85 % 0.00 in
23:15 60.3 °F 55.8 °F 30.01 in Calm   2.0 mph 85 % 0.00 in
23:20 60.1 °F 55.9 °F 30.01 in Calm   2.0 mph 86 % 0.00 in
23:25 59.9 °F 55.8 °F 30.01 in Calm   2.0 mph 86 % 0.00 in
23:31 59.7 °F 55.8 °F 30.01 in Calm   2.0 mph 87 % 0.00 in
23:36 59.7 °F 55.8 °F 30.01 in Calm   1.0 mph 87 % 0.00 in
23:41 59.4 °F 55.4 °F 30.01 in Calm   1.0 mph 87 % 0.00 in
23:46 59.2 °F 55.6 °F 30.01 in Calm   1.0 mph 88 % 0.00 in
23:51 58.8 °F 55.2 °F 30.01 in Calm   1.0 mph 88 % 0.00 in
23:56 58.6 °F 55.0 °F 30.01 in Calm   1.0 mph 88 % 0.00 in
Spring, Texas: Villages of Bridgestone
Compliments of Weather Underground - 2.75 mb

Script developed by  Jim McMurry - jmcmurry@mwt.net Adapted for the template by  Wim van der Kuil - Leuven-Template.eu

You find our weather info also at:

UK Metoffice

WeatherCloud

Weather Underground

Mid-South Weather Network

AWEKAS

Citizen Weather Observer Program (CWOP)

HAMweather, WeatherForYou, PWS Weather

Equipment we use:

Weather-station
Davis Vantage Vue

Weather-program
Meteohub

Weather-server
Debian 7.9 x86 (Guest)

Provider
DreamHost

Davis Vantage Vue

Meteohub

Debian 7.9 x86 (Guest)

DreamHost